Theta_e
305 305 308 310 312 314 314 314 314 314 315 314 313 318 318 318 317 317 317 314 306 302 308 315 314 313 314 314 314 315 316 318 320 319 319 317 317 317 316 318 317 317 318 317 316
308 307 306 305 305 306 309 311 312 313 313 314 313 314 318 317 317 317 317 311 308 304 308 315 314 313 314 314 313 314 315 317 319 320 318 318 317 318 317 318 318 318 315 315 314
306 307 308 307 307 306 305 304 303 308 311 310 312 312 316 317 316 315 311 309 311 307 302 313 314 313 314 314 314 314 316 317 317 315 315 316 316 316 317 319 319 319 318 316 315
304 306 307 308 308 307 305 305 305 304 306 305 307 311 315 317 316 313 311 311 313 308 303 310 313 314 315 316 315 315 314 315 315 314 314 315 315 316 316 318 317 317 317 317 315
304 304 305 305 307 307 307 305 305 304 305 306 305 308 311 315 316 316 309 310 314 309 308 308 311 314 315 315 315 315 315 314 314 313 312 313 314 315 316 316 316 315 314 317 317
302 303 304 303 304 306 307 306 304 304 303 303 303 304 309 313 314 314 313 313 313 310 309 309 310 312 313 314 314 314 314 314 313 313 313 313 313 314 315 315 315 315 314 314 316
301 302 303 303 303 304 304 306 306 304 304 303 303 305 308 310 312 312 311 311 311 310 310 310 311 312 312 313 312 312 313 314 314 313 313 313 314 314 314 314 313 314 314 314 314
301 300 301 302 302 303 304 304 306 306 304 304 303 307 308 307 308 311 313 312 311 310 310 312 311 311 311 313 312 312 313 314 314 314 313 313 315 317 316 315 314 314 314 314 313
301 300 300 299 301 301 302 303 304 305 305 304 304 306 306 307 307 304 309 312 312 312 312 313 311 311 312 313 314 314 313 314 313 315 314 314 315 316 316 315 314 315 315 315 315
299 300 301 300 300 299 300 301 301 303 306 305 305 305 305 306 307 308 308 309 311 312 312 311 311 311 312 314 316 313 314 313 315 314 314 315 314 315 315 314 314 314 315 316 315
302 302 300 300 299 299 299 301 303 303 306 305 305 305 307 307 306 308 309 309 309 311 314 312 313 313 311 312 313 313 315 315 314 314 313 314 314 315 315 315 314 315 316 316 316
302 300 301 299 300 299 300 303 303 303 304 304 304 305 305 304 305 308 309 309 309 312 311 314 316 314 311 311 312 313 314 315 314 314 312 315 316 315 315 315 315 315 315 315 316
299 301 300 300 300 300 301 303 302 303 303 303 303 304 305 304 304 304 308 309 310 310 311 314 313 312 312 311 311 312 313 313 315 314 313 314 315 315 315 315 315 315 314 315 315
299 300 299 298 299 301 302 302 301 302 303 302 302 302 304 304 304 304 306 309 310 311 309 311 311 313 312 312 312 313 312 312 312 313 313 314 317 317 317 318 317 315 315 315 315
300 299 299 298 300 301 301 302 302 300 303 302 303 303 304 304 304 304 304 308 309 310 310 310 310 312 314 311 311 312 312 312 312 313 313 313 313 314 315 316 315 315 314 315 315
299 299 297 298 299 301 301 301 301 303 302 303 304 304 304 303 304 304 304 306 308 309 310 310 309 310 312 311 310 310 311 311 311 312 315 313 313 314 315 315 315 315 315 315 315
298 298 298 298 299 300 300 300 302 302 301 303 304 304 304 304 304 305 305 306 307 310 309 311 310 310 311 312 310 310 311 313 314 316 315 313 313 315 315 315 315 316 316 314 313
298 297 298 298 299 300 300 300 302 302 303 302 302 304 304 304 304 305 305 307 306 307 308 310 312 311 310 311 311 311 312 313 314 315 315 312 313 313 314 314 313 313 313 313 312
298 297 297 298 299 299 299 301 301 302 301 301 302 303 304 304 304 305 305 307 306 306 308 309 309 310 310 310 311 311 311 312 312 311 313 314 313 313 313 312 313 313 312 311 311
298 297 298 298 299 298 299 301 301 300 301 301 301 302 304 305 305 305 305 305 307 306 307 308 309 309 310 310 310 310 311 311 311 315 315 312 314 314 314 313 313 314 313 311 310
298 297 297 297 298 298 300 301 301 300 300 301 301 302 302 303 305 305 305 305 305 306 307 308 308 309 310 311 311 311 312 311 311 311 313 313 313 312 313 314 314 314 313 312 309
297 298 297 297 298 300 299 300 300 301 299 300 301 301 302 302 304 305 305 304 305 306 306 307 307 309 311 310 310 310 311 311 313 312 311 313 313 313 313 314 312 312 311 309 309
296 296 297 297 299 300 301 300 300 300 300 301 301 301 302 302 303 305 305 305 305 306 306 307 308 309 308 309 311 311 311 311 312 311 312 312 312 310 309 310 310 311 310 309 309
296 298 296 298 298 300 300 300 300 299 300 301 302 302 302 302 303 305 305 305 305 305 305 305 309 308 307 306 308 311 311 311 312 313 312 312 311 312 310 311 311 311 310 310 309
295 297 297 298 298 299 300 300 300 300 301 301 302 303 303 302 303 302 303 304 304 304 305 306 305 309 308 306 307 309 311 312 312 313 312 312 312 311 312 312 312 311 310 309 309
295 296 294 298 298 300 300 300 300 301 301 301 301 302 302 301 302 302 302 303 302 304 304 305 306 306 307 309 307 307 309 311 312 312 312 312 312 312 312 312 312 311 310 309 309
294 294 296 298 298 300 301 300 300 300 299 300 301 300 301 300 301 301 301 302 303 303 305 305 305 306 306 307 308 308 308 308 310 311 311 312 312 312 311 310 310 310 309 310 309
Wind_Speed
14 14 18 20 20 23 23 21 18 21 21 16 14 14 14 14 14 14 10 8 9 9 5 10 11 10 10 11 9 6 7 14 19 15 12 3 7 4 2 8 6 7 2 5 9
15 15 15 15 16 20 24 24 23 24 25 24 22 17 14 14 16 15 12 8 10 11 11 13 14 13 12 15 9 14 11 18 18 11 8 5 9 5 6 10 12 12 9 10 9
19 18 17 15 15 14 14 14 19 22 22 20 19 16 13 11 12 5 10 6 6 12 13 12 12 14 18 13 17 13 17 17 12 9 10 12 8 8 8 12 13 14 16 16 14
22 18 19 17 16 15 14 12 11 14 14 16 18 17 9 8 6 7 9 3 8 5 15 13 16 20 15 17 21 13 23 23 10 9 7 12 13 10 17 16 1 6 6 17 17
21 24 20 22 18 17 16 14 10 8 12 14 13 16 13 11 16 8 10 14 19 5 14 16 18 21 18 14 22 23 20 14 20 19 12 12 14 14 17 16 11 7 8 13 14
20 22 21 20 20 18 17 16 14 10 7 8 11 17 12 18 11 15 21 21 11 5 10 15 13 21 15 22 17 11 26 29 19 14 16 14 20 14 13 19 21 17 16 15 16
21 25 21 22 20 17 18 16 16 14 13 11 12 9 17 24 8 13 11 13 13 8 9 13 16 12 9 17 20 21 21 17 19 22 13 7 18 25 27 22 10 15 22 21 21
25 19 25 23 22 23 17 15 15 14 15 13 12 8 13 7 25 21 11 10 11 11 9 9 11 15 20 15 9 11 21 20 15 18 12 11 22 19 24 26 29 25 21 19 21
27 23 20 19 19 21 22 17 15 15 15 14 11 9 18 7 21 26 26 26 12 13 11 9 9 15 15 14 13 18 15 21 18 18 12 17 16 16 21 14 19 19 20 22 21
29 23 19 18 18 16 18 23 17 15 15 10 10 5 19 10 11 14 20 22 22 15 11 10 10 12 16 16 18 16 19 21 17 15 17 19 19 19 8 8 20 23 22 18 17
30 25 21 21 17 17 13 11 9 9 20 16 7 13 5 2 8 7 7 16 20 20 20 18 11 23 26 24 20 22 19 17 19 16 9 18 20 23 24 26 19 18 16 18 20
30 28 23 20 17 15 15 12 15 5 7 25 27 23 19 4 5 8 11 15 21 26 22 16 27 24 21 22 24 23 23 18 15 5 5 12 18 19 20 21 26 26 28 27 28
30 28 23 23 18 18 19 21 13 9 6 14 20 31 35 21 19 18 19 21 17 23 28 29 26 24 20 24 25 25 26 20 14 4 13 14 24 21 26 28 28 28 28 27 28
30 28 24 19 21 18 21 21 17 11 5 7 12 15 22 28 11 30 24 15 13 22 28 26 29 23 27 29 25 26 24 22 22 14 13 10 18 21 17 21 21 25 30 32 33
31 28 27 24 16 18 14 17 19 9 6 10 15 3 10 27 7 17 35 28 24 22 14 24 22 27 24 28 25 23 16 21 20 18 17 26 13 13 18 15 15 15 23 27 29
29 28 26 25 26 15 14 23 21 7 10 9 10 12 12 31 23 4 20 26 22 25 25 27 26 22 32 23 23 17 19 19 16 14 14 31 18 18 18 16 13 15 20 25 21
28 28 27 23 28 23 21 24 6 12 4 8 10 13 19 16 21 17 18 24 15 12 22 25 26 21 22 25 21 22 20 8 9 11 24 6 17 22 8 15 13 15 18 8 11
30 27 27 27 23 25 30 6 14 11 17 10 15 15 13 14 18 23 20 20 28 23 13 22 15 28 22 27 26 28 24 11 19 15 19 13 15 13 5 18 23 18 15 9 11
27 24 27 29 25 27 19 13 14 17 16 20 12 13 17 18 13 18 23 20 27 29 24 19 31 20 19 25 27 26 21 28 19 3 8 16 20 19 8 9 10 18 16 15 14
29 24 28 28 29 29 8 20 8 17 13 17 22 16 16 17 19 12 14 15 25 29 32 21 18 28 28 24 26 24 30 19 9 20 18 15 22 13 17 21 19 15 17 15 10
29 15 20 26 29 18 15 14 15 18 18 19 20 17 20 16 16 19 8 15 26 23 26 29 20 10 24 25 28 19 21 20 19 14 15 19 18 15 15 12 14 17 17 13 10
23 6 16 28 10 3 11 11 7 18 21 15 13 19 21 17 17 17 21 18 19 22 22 29 13 19 12 22 26 27 27 27 12 24 18 14 15 2 2 4 3 9 9 9 10
21 12 14 30 10 13 7 8 10 12 17 14 14 15 17 16 12 17 18 16 15 11 13 19 11 18 17 13 13 26 27 24 25 17 19 18 19 5 4 5 8 8 9 8 8
12 6 8 25 14 16 15 18 13 20 16 14 7 14 16 12 5 2 8 8 0 5 6 5 5 15 20 21 15 9 21 26 25 20 17 19 21 19 9 9 8 10 11 10 9
10 5 7 7 12 16 15 11 17 11 16 22 9 10 15 9 9 6 6 4 5 3 2 4 9 13 24 24 21 13 22 26 28 26 25 20 23 21 14 12 13 12 12 11 11
10 5 4 4 13 20 21 16 21 19 16 12 14 13 10 5 10 7 9 5 4 7 4 5 8 8 10 24 24 19 16 21 27 28 25 23 22 19 20 18 13 14 14 13 12
19 13 9 7 10 11 17 21 23 18 4 16 16 13 9 7 3 2 3 4 4 2 6 4 3 4 10 6 12 17 19 17 16 24 27 23 24 20 4 4 11 18 16 13 11
Wind_Direction
270 256 248 251 253 255 258 258 260 264 271 278 289 298 290 301 311 308 294 258 271 264 239 201 197 199 196 210 208 213 241 240 236 240 253 143 219 184 241 232 210 210 253 171 190
264 267 262 255 256 256 256 257 260 262 267 271 277 274 273 287 302 290 260 262 264 239 203 196 200 193 199 214 212 208 230 244 258 270 240 212 241 219 213 216 223 217 218 209 198
255 255 258 264 261 261 261 261 257 257 263 268 265 262 277 278 304 209 192 201 358 234 209 215 210 206 220 219 214 222 239 242 250 275 286 273 246 227 229 242 232 229 216 218 213
254 255 253 253 256 260 264 267 271 257 263 271 262 258 252 230 257 222 202 243 347 257 203 209 211 206 220 222 224 250 240 250 266 256 253 247 265 245 234 241 53 225 219 210 211
251 251 259 255 254 254 257 261 267 285 254 267 276 263 260 239 236 267 233 284 312 331 201 207 210 213 230 235 233 230 252 239 254 249 261 261 253 259 264 245 241 224 205 204 215
250 248 254 255 253 250 249 255 262 262 259 280 281 265 254 245 239 247 257 268 274 269 207 212 225 228 259 252 239 228 240 251 240 250 243 246 255 248 257 245 244 237 233 226 228
262 247 252 254 248 249 248 246 251 254 262 262 283 278 251 240 238 248 249 252 249 213 216 223 233 259 230 261 254 252 263 252 245 234 252 251 256 242 247 254 251 240 241 239 238
256 261 242 254 258 246 248 248 250 246 251 262 262 265 257 249 238 238 195 200 204 197 210 224 235 248 254 261 267 238 242 250 236 218 235 206 257 249 249 238 247 245 245 250 248
256 261 248 245 255 253 247 249 252 249 248 249 256 246 268 251 227 235 230 234 228 248 251 242 234 234 232 236 251 228 245 232 248 215 212 209 259 257 252 221 243 250 247 246 249
246 244 240 241 251 256 252 252 252 256 241 215 229 268 240 239 243 237 232 233 233 228 235 212 214 228 219 215 224 227 233 248 244 218 222 232 243 256 235 235 243 251 248 245 244
238 234 243 246 242 242 247 240 233 249 218 195 196 211 113 214 222 217 212 216 219 220 217 201 212 220 223 222 237 258 252 241 248 239 243 245 253 254 247 249 238 245 241 246 247
234 233 233 239 238 238 224 217 231 205 251 229 236 233 239 289 276 239 202 188 200 219 210 227 228 226 222 233 228 238 249 258 256 248 240 267 264 254 254 251 249 245 247 249 258
230 227 229 236 238 231 224 219 221 234 259 247 236 240 239 242 242 235 199 210 215 221 215 216 226 222 224 218 225 228 233 235 246 261 252 277 270 249 253 246 247 244 244 246 249
228 223 223 236 237 227 224 219 214 216 254 232 218 246 220 220 251 227 218 209 217 227 225 236 236 232 218 222 215 226 220 240 241 247 258 209 280 267 252 240 228 237 240 240 241
220 221 219 221 216 203 219 198 188 160 249 185 193 192 197 186 186 213 212 217 225 215 211 229 228 226 233 225 221 239 227 222 239 249 265 258 263 276 234 234 230 224 235 237 239
214 215 218 222 221 207 185 176 160 204 228 172 148 193 190 206 222 235 198 215 235 240 234 244 227 228 225 219 219 222 225 223 225 236 243 239 241 259 244 246 250 246 248 237 230
213 218 218 214 217 204 185 161 205 218 151 171 196 191 206 201 222 225 208 199 203 211 230 244 238 240 228 216 211 209 193 188 214 214 234 212 227 245 253 244 283 239 230 208 217
210 214 214 221 209 194 178 182 230 210 209 160 202 192 204 208 220 217 225 206 218 232 235 227 221 216 222 215 202 207 197 207 214 218 241 220 240 236 238 248 263 250 247 235 219
205 205 211 216 200 193 183 204 221 220 216 215 214 215 217 225 230 216 222 217 222 217 220 225 230 195 207 207 201 202 217 217 246 288 258 226 234 257 229 255 253 243 231 233 241
187 195 209 213 202 197 214 237 221 229 221 212 218 211 218 217 212 219 205 220 230 225 221 241 251 224 202 209 218 213 212 208 218 229 229 230 240 237 206 223 231 231 233 234 226
181 176 209 206 200 201 218 216 220 230 222 213 223 224 237 220 219 221 206 222 217 227 220 232 248 236 207 202 209 212 211 219 221 228 220 238 243 232 229 220 235 232 224 222 207
171 186 195 183 198 199 221 213 172 222 218 228 247 234 234 235 232 225 235 234 217 221 220 222 230 247 243 215 214 217 216 208 216 215 231 248 240 80 239 217 226 257 168 190 191
168 175 178 184 212 213 219 211 212 210 211 215 217 227 237 235 237 219 230 242 233 237 234 222 219 240 261 234 241 224 220 222 220 228 218 222 233 158 175 196 215 209 189 187 174
149 165 180 197 222 214 213 209 211 211 212 218 214 239 223 224 213 303 221 200 40 243 307 351 231 215 230 236 231 204 221 227 220 226 226 228 239 230 208 199 190 188 183 173 162
163 191 167 180 220 213 215 199 202 196 217 200 199 208 194 210 207 220 254 198 210 192 233 195 257 248 233 228 246 261 231 215 225 226 229 229 234 236 196 195 196 187 178 171 168
144 165 151 222 209 207 203 205 196 191 172 189 209 194 196 186 202 196 219 214 239 168 197 182 263 234 267 250 242 234 242 269 224 225 230 243 246 251 245 235 193 190 185 184 177
193 197 204 175 212 214 197 207 209 192 222 203 196 177 201 219 267 32 27 317 317 245 208 198 229 252 250 202 248 253 237 245 261 234 225 227 232 238 229 169 207 201 185 174 159